Forecast Directory
U.S. Alerts
El Dorado Weather Logo
U.S. Radar Loop Conditions Map

U.S. Color Satellite North America Color Infrared Animated Satellite Loop

Interactive Wx Map Live U.S. Google Map Radar Thumbnail Image

US Precipitation 1 day, 24 hour precipitation map

US Temperatures US Conditions Map

US Climate Data US Conditions Map


NOAA NWS Hourly Roundups by Site
Regional Weather Roundup for Sacramento, CA
Select Site:  

000
ASUS46 KSTO 032015
RWRCA

NORTHERN AND CENTRAL CA REGIONAL WEATHER ROUNDUP
NATIONAL WEATHER SERVICE SACRAMENTO CA
100 PM PDT SUN JUL 03 2022

NOTE: FAIR INDICATES FEW OR NO CLOUDS BELOW 12,000 FEET WITH NO
SIGNIFICANT WEATHER AND/OR OBSTRUCTIONS TO VISIBILITY.

CAZ001-003-032100-
NORTHWEST AREA

CITY           SKY/WX    TMP DP  RH WIND       PRES   REMARKS
CRESCENT CITY  CLOUDY    58  54  86 W6        29.99S
UKIAH          MOSUNNY   69  49  48 VRB3      29.96S
$$

CAZ006-505>513-032100-
BAY AREA

CITY           SKY/WX    TMP DP  RH WIND       PRES   REMARKS
SANTA ROSA     MOSUNNY   69  52  54 S8        29.97S
SAN RAFAEL     N/A       69  MM  MM MISG
NAPA           MOSUNNY   69  52  54 SW17      29.98S
CONCORD        PTSUNNY   65  51  60 S17       29.99F
OAKLAND CITY   N/A       59  MM  MM MISG
OAKLAND        CLOUDY    60  50  69 W13       30.04R
SAN FRAN CITY  N/A       58  MM  75 MISG
SAN FRAN ARPT  CLOUDY    62  49  62 W16       30.03S
LIVERMORE      PTSUNNY   63  51  65 W17       30.02S
HAYWARD        CLOUDY    60  51  72 W10       30.03S
SAN JOSE ARPT  PTSUNNY   65  51  60 NW12      30.03S
$$
CAZ034-037-514>518-032100-
CENTRAL COAST

CITY           SKY/WX    TMP DP  RH WIND       PRES   REMARKS
WATSONVILLE    MOSUNNY   65  51  60 SW9       30.02F
SALINAS        PTSUNNY   66  50  56 NW9       30.02F
MONTEREY       PTSUNNY   62  50  64 NW12      30.04F
SAN LUIS OBISP SUNNY     72  52  49 NW14      29.97F
SANTA MARIA    MOSUNNY   66  51  58 NW14      30.00S
HALF MOON BAY  CLOUDY    59  55  88 NW8       30.05R
$$
CAZ015-016-032100-
NORTHERN SACRAMENTO VALLEY

CITY           SKY/WX    TMP DP  RH WIND       PRES   REMARKS
REDDING        PTSUNNY   76  47  35 S15G21    29.89F
RED BLUFF      PTSUNNY   73  49  42 S12G23    29.92F
OROVILLE       MOSUNNY   75  53  46 S9G21     29.95F
$$
CAZ016>018-032100-
SOUTHERN SACRAMENTO VALLEY

CITY           SKY/WX    TMP DP  RH WIND       PRES   REMARKS
AUBURN         SUNNY     68  50  52 S8        29.98S
BEALE AFB      PTSUNNY   73  52  47 S13       29.93F
LINCOLN        FAIR      72  50  46 S13G18    29.94S
MARYSVILLE     PTSUNNY   74  53  48 SE15G21   29.94F
SAC INTL ARPT  PTSUNNY   71  51  49 S12       29.95R
MATHER AIRPORT SUNNY     68  50  52 S14G20    29.96S
DOWNTOWN SAC   N/A       67  MM  MM MISG
SAC EXEC ARPT  PTSUNNY   66  52  60 SW9       29.97R
VACAVILLE      MOSUNNY   73  52  47 SW17G23   29.95F
TRAVIS AFB     MOSUNNY   70  51  51 SW21G26   29.95S
$$
CAZ019>021-032100-
SAN JOAQUIN VALLEY

CITY           SKY/WX    TMP DP  RH WIND       PRES   REMARKS
STOCKTON       MOSUNNY   72  52  49 W15       29.97S
MODESTO        SUNNY     73  50  44 N13       29.95F
MERCED         SUNNY     76  47  35 N9        29.94F
LEMOORE        SUNNY     81  45  28 NW10      29.94F
FRESNO         MOSUNNY   79  47  32 NW7       29.93F
HANFORD        SUNNY     81  45  28 VRB6      29.94F
PORTERVILLE    SUNNY     80  48  32 MISG      29.94F
BAKERSFIELD    SUNNY     81  43  26 NW10      29.92F
$$
CAZ011-012-071-032100-
NORTHERN MOUNTAINS

CITY           SKY/WX    TMP DP  RH WIND       PRES   REMARKS
YREKA          PTSUNNY   72  46  39 W6        29.90F
MOUNT SHASTA   PTSUNNY   68  42  38 CALM      29.93S
ALTURAS        PTSUNNY   72  24  16 W12       29.92F
$$
CAZ011-012-071-032100-
SIERRA NEVADA MTNS

CITY           SKY/WX    TMP DP  RH WIND       PRES   REMARKS
BLUE CANYON    MOSUNNY   61  28  28 SW13G21   30.08R
TRUCKEE        SUNNY     70  27  19 SW12G22   30.06R
TAHOE VLY ARPT MOSUNNY   66  26  22 VRB7G21   30.05S
$$


 

View Past Reports for Sacramento, CA.

Products Courtesy of NOAA-NWS
NWS Information Parsing Script by Ken True at Saratoga Weather - Script by SE Lincoln Weather.



Contact Us | Mobile
Never base any life decisions on weather information from this site or anywhere over the Internet.
Site is dedicated to our Lord & Savior Jesus Christ | Random Quotes of Jesus

Copyright © 2022 El Dorado Weather, Inc. | Site Designed By:  El Dorado Weather